Location: Cutler
(25.6150°N, 80.3110°W)
Time: 00:25:03
(UTC-04:00)

Cosmos 2360 Rocket - Visible Passes

Search period start: 02 September 2014 00:00
Search period end: 12 September 2014 00:00
Orbit: 833 x 847 km, 71.0° (Epoch: 01 September)

Date Brightness Start Highest point End Pass type
(mag) Time Alt. Az. Time Alt. Az. Time Alt. Az.
02 Sep 2.4 04:48:33 62° N 04:48:33 62° N 04:53:14 10° NNE visible
03 Sep 3.1 04:33:56 43° NNE 04:33:56 43° NNE 04:37:40 10° NNE visible
04 Sep 3.7 04:19:15 31° NNE 04:19:15 31° NNE 04:22:05 10° NNE visible
05 Sep 4.2 04:04:31 23° NNE 04:04:31 23° NNE 04:06:30 10° NNE visible
06 Sep 4.6 03:49:43 17° NNE 03:49:43 17° NNE 03:50:55 10° NNE visible
07 Sep 4.9 03:34:51 12° NNE 03:34:51 12° NNE 03:35:19 10° NNE visible
